Jamestown, ND

4:18 PM CDT on October 23, 2017 (GMT -0500)
Jamestown Municipal

Weather History for KJMS - February, 2015

Change the Weather History Date:

Tuesday, February 17, 2015

  Actual Average Record
Temperature  
Mean Temperature -1 °F 16 °F  
Max Temperature 6 °F 25 °F 58 °F (1954)
Min Temperature -9 °F 6 °F -32 °F (1956)
Degree Days  
Heating Degree Days 66 49  
Month to date heating degree days 944 880  
Since 1 July heating degree days 6069 6242  
Cooling Degree Days 0 0  
Month to date cooling degree days 0 0  
Year to date cooling degree days 0 0  
Moisture  
Dew Point -7 °F    
Average Humidity 76    
Maximum Humidity 87    
Minimum Humidity 65    
Precipitation  
Precipitation T in 0.02 in 0.40 in (1901)
Month to date precipitation 0.10 0.20  
Year to date precipitation 0.37 0.65  
Sea Level Pressure  
Sea Level Pressure 30.12 in    
Wind  
Wind Speed 18 mph (NW)    
Max Wind Speed 30 mph    
Max Gust Speed 36 mph    
Visibility 6 miles    
Events Snow    
T = Trace of Precipitation, MM = Missing Value Source: NWS Daily Summary

Daily Weather History Graph

Daily Weather History Graph

Search for Another Location

Airport or City:

Trip Planner

Search our weather history database for the weather conditions in past years. The results will help you decide how hot, cold, wet, or windy it might be!

Date:

Astronomy

Feb. 17, 2015 Rise Set
Actual Time 7:36 AM CST 6:02 PM CST
Civil Twilight 7:04 AM CST 6:33 PM CST
Nautical Twilight 6:29 AM CST 7:08 PM CST
Astronomical Twilight 5:54 AM CST 7:43 PM CST
Moon 6:24 AM CST (2/17) 4:50 PM CST (2/17)
Length of Visible Light 11h 28m
Length of Day
10h 26m
Waning Crescent, 2% of the Moon is Illuminated
Feb 17
Waning Crescent
Feb 18
New
Feb 25
First Quarter
Mar 5
Full
Mar 13
Last Quarter

Hourly Weather History & Observations

Time (CST) Temp. Windchill Dew Point Humidity Pressure Visibility Wind Dir Wind Speed Gust Speed Precip Events Conditions
12:02 AM 5.0 °F -13.6 °F -0.0 °F 80% 30.13 in 1.8 mi North 16.1 mph - 0.00 in Snow Light Snow
12:10 AM 3.9 °F -15.0 °F -0.9 °F 80% 30.13 in 1.2 mi NNW 16.1 mph - 0.00 in Snow Light Snow
12:16 AM 3.9 °F -13.7 °F -2.0 °F 76% 30.13 in 3.0 mi NNW 13.8 mph - 0.00 in Snow Light Snow
12:31 AM 3.0 °F -13.3 °F -2.0 °F 80% 30.13 in 8.0 mi NNW 11.5 mph - 0.00 in   Overcast
12:54 AM 3.2 °F -13.9 °F -0.4 °F 85% 30.13 in 1.8 mi NNW 12.7 mph - 0.00 in Snow Light Snow
12:56 AM 3.0 °F -12.5 °F -0.9 °F 84% 30.24 in 1.2 mi NNW 10.4 mph - 0.00 in Snow Light Snow
1:09 AM 3.0 °F -13.3 °F -2.0 °F 80% 30.13 in 3.0 mi NW 11.5 mph - 0.00 in Snow Light Snow
1:56 AM 1.9 °F -16.9 °F -4.0 °F 76% 30.23 in 8.0 mi NW 15.0 mph - 0.00 in   Overcast
2:56 AM -0.0 °F -19.4 °F -6.0 °F 76% 30.23 in 5.0 mi NW 15.0 mph - 0.00 in   Haze
3:56 AM -2.0 °F -20.5 °F -8.0 °F 76% 30.22 in 10.0 mi NW 12.7 mph - N/A   Overcast
4:56 AM -4.0 °F -23.7 °F -9.9 °F 76% 30.22 in 10.0 mi NW 13.8 mph - N/A   Overcast
5:16 AM -6.0 °F -23.6 °F -11.9 °F 75% 30.11 in 10.0 mi NW 10.4 mph - N/A   Scattered Clouds
5:56 AM -6.0 °F -26.3 °F -11.9 °F 75% 30.22 in 10.0 mi WNW 13.8 mph - N/A   Clear
6:56 AM -6.0 °F -26.3 °F -11.9 °F 75% 30.20 in 10.0 mi WNW 13.8 mph - N/A   Scattered Clouds
7:56 AM -6.0 °F -27.0 °F -13.0 °F 72% 30.20 in 10.0 mi WNW 15.0 mph - N/A   Mostly Cloudy
8:56 AM -5.1 °F -25.9 °F -11.9 °F 72% 30.19 in 10.0 mi WNW 15.0 mph - N/A   Partly Cloudy
9:56 AM -2.0 °F -23.9 °F -9.9 °F 69% 30.17 in 10.0 mi WNW 18.4 mph - N/A   Clear
10:56 AM 1.0 °F -22.4 °F -8.0 °F 66% 30.15 in 10.0 mi WNW 24.2 mph 27.6 mph 0.00 in   Scattered Clouds
11:07 AM 1.9 °F -20.7 °F -7.1 °F 66% 30.04 in 10.0 mi WNW 23.0 mph 31.1 mph N/A   Mostly Cloudy
11:56 AM 3.0 °F -18.8 °F -6.0 °F 66% 30.14 in 10.0 mi WNW 21.9 mph 31.1 mph 0.00 in   Overcast
12:56 PM 5.0 °F -16.2 °F -2.9 °F 70% 30.12 in 5.0 mi NW 21.9 mph 33.4 mph 0.00 in Snow Blowing Snow
1:10 PM 5.0 °F -17.5 °F -2.9 °F 70% 29.99 in 3.0 mi NW 25.3 mph 31.1 mph 0.00 in   Overcast
1:19 PM 5.0 °F -17.5 °F -2.9 °F 70% 29.99 in 8.0 mi NW 25.3 mph 33.4 mph 0.00 in   Overcast
1:56 PM 5.0 °F -16.2 °F -4.0 °F 66% 30.10 in 8.0 mi NW 21.9 mph 34.5 mph 0.00 in   Overcast
2:56 PM 3.9 °F -19.4 °F -4.0 °F 70% 30.10 in 3.0 mi NW 26.5 mph 33.4 mph 0.00 in Snow Blowing Snow
3:00 PM 3.9 °F -18.5 °F -2.9 °F 73% 29.98 in 1.8 mi NW 24.2 mph 33.4 mph 0.00 in Snow Light Snow
3:09 PM 3.9 °F -18.5 °F -4.0 °F 70% 29.98 in 1.5 mi NW 24.2 mph 32.2 mph 0.00 in Snow Light Snow
3:14 PM 5.0 °F -17.9 °F -4.0 °F 66% 29.98 in 3.0 mi NW 26.5 mph 34.5 mph 0.00 in   Overcast
3:36 PM 3.9 °F -19.4 °F -5.1 °F 66% 29.98 in 2.5 mi NW 26.5 mph 33.4 mph 0.00 in Snow Blowing Snow
3:45 PM 6.1 °F -16.5 °F -5.1 °F 60% 29.99 in 4.0 mi NW 26.5 mph 34.5 mph 0.00 in   Overcast
3:56 PM 3.9 °F -19.0 °F -5.1 °F 66% 30.12 in 6.0 mi NW 25.3 mph 33.4 mph 0.00 in   Haze
4:41 PM 3.0 °F -20.2 °F -4.0 °F 73% 30.00 in 1.8 mi NW 25.3 mph 32.2 mph 0.00 in   Overcast
4:56 PM 1.9 °F -20.7 °F -4.0 °F 76% 30.14 in 2.0 mi NNW 23.0 mph 33.4 mph 0.00 in   Overcast
5:09 PM 1.9 °F -20.7 °F -6.0 °F 69% 30.01 in 5.0 mi NNW 23.0 mph 31.1 mph 0.00 in Snow Blowing Snow
5:24 PM 1.9 °F -21.6 °F -5.1 °F 72% 30.01 in 1.8 mi NW 25.3 mph 31.1 mph 0.00 in Snow Light Snow
5:35 PM 1.0 °F -20.9 °F -6.0 °F 72% 30.01 in 3.0 mi NNW 20.7 mph 29.9 mph 0.00 in Snow Light Snow
5:56 PM 1.0 °F -22.8 °F -5.1 °F 75% 30.15 in 2.0 mi NNW 25.3 mph - 0.00 in Snow Light Snow
6:15 PM -0.0 °F -23.3 °F -7.1 °F 72% 30.02 in 3.0 mi NW 23.0 mph 28.8 mph 0.00 in   Overcast
6:56 PM -0.9 °F -22.4 °F -9.0 °F 69% 30.17 in 10.0 mi NNW 18.4 mph 29.9 mph 0.00 in   Mostly Cloudy
7:28 PM -0.9 °F -23.0 °F -8.0 °F 72% 30.05 in 9.0 mi NNW 19.6 mph - 0.00 in   Mostly Cloudy
7:43 PM -2.0 °F -23.3 °F -9.0 °F 72% 30.05 in 10.0 mi NNW 17.3 mph - 0.00 in   Scattered Clouds
7:56 PM -2.0 °F -24.4 °F -9.0 °F 72% 30.19 in 10.0 mi NNW 19.6 mph - 0.00 in   Scattered Clouds
8:04 PM -2.0 °F -23.9 °F -9.0 °F 72% 30.06 in 10.0 mi NNW 18.4 mph - N/A   Mostly Cloudy
8:40 PM -2.9 °F -24.4 °F -9.0 °F 75% 30.07 in 10.0 mi NNW 17.3 mph 25.3 mph N/A   Scattered Clouds
8:56 PM -2.9 °F -24.4 °F -9.9 °F 72% 30.22 in 10.0 mi NNW 17.3 mph - N/A   Partly Cloudy
9:56 PM -5.1 °F -23.5 °F -11.0 °F 76% 30.24 in 10.0 mi NNW 11.5 mph - N/A   Clear
10:56 PM -7.1 °F -25.0 °F -13.0 °F 75% 30.26 in 10.0 mi NNW 10.4 mph - N/A   Clear
11:56 PM -8.0 °F -27.1 °F -14.1 °F 75% 30.27 in 10.0 mi NNW 11.5 mph - N/A   Clear